Location: Newark
(39.6867°N, 100.6772°W)
Time: 09:49:27
(UTC+00:00)

Transit 4A - All Passes

Search period start: 23 October 2019 00:00
Search period end: 02 November 2019 00:00
Orbit: 867 x 978 km, 66.8° (Epoch: 22 October)

Date Brightness Start Highest point End Pass type
(mag) Time Alt. Az. Time Alt. Az. Time Alt. Az.
23 Oct - 09:37:11 10° S 09:42:49 34° ESE 09:48:23 10° NE visible
23 Oct - 11:23:06 10° WSW 11:29:03 41° NW 11:34:57 10° NNE visible
23 Oct - 18:40:44 10° NNW 18:46:04 32° NE 18:51:16 10° ESE daylight
23 Oct - 20:26:59 10° NW 20:32:28 41° WSW 20:37:51 10° S daylight
24 Oct - 09:45:53 10° S 09:52:00 51° ESE 09:58:03 10° NE visible
24 Oct - 11:33:10 10° WSW 11:38:37 30° NW 11:44:00 10° N visible
24 Oct - 18:49:50 10° NNW 18:55:35 46° NE 19:01:10 10° SE daylight
24 Oct - 20:36:47 10° NW 20:41:36 26° WSW 20:46:20 10° SSW daylight
25 Oct - 08:14:49 10° ESE 08:15:55 10° E 08:17:01 10° E visible
25 Oct - 09:54:56 10° SSW 10:01:16 76° ESE 10:07:30 10° NNE visible
25 Oct - 11:43:32 10° W 11:48:16 22° NW 11:52:57 10° N visible
25 Oct - 17:14:30 10° N 17:17:28 14° NE 17:20:24 10° ENE daylight
25 Oct - 18:59:03 10° NNW 19:05:01 69° ENE 19:10:48 10° SE daylight
25 Oct - 20:47:02 10° WNW 20:50:39 17° WSW 20:54:14 10° SW daylight
26 Oct - 08:20:58 10° SE 08:24:55 17° ESE 08:28:50 10° ENE visible
26 Oct - 10:04:15 10° SW 10:10:36 75° WNW 10:16:52 10° NNE visible
26 Oct - 11:54:19 10° WNW 11:58:01 16° NW 12:01:40 10° N visible
26 Oct - 17:23:06 10° N 17:27:16 19° NE 17:31:20 10° E daylight
26 Oct - 19:08:23 10° NNW 19:14:20 81° WSW 19:20:09 10° SSE daylight
27 Oct - 08:28:51 10° SSE 08:33:59 27° ESE 08:39:05 10° NE visible
27 Oct - 10:13:51 10° SW 10:20:01 52° WNW 10:26:06 10° NNE visible
27 Oct - 12:05:48 10° NW 12:07:52 12° NW 12:09:54 10° NNW visible
27 Oct - 17:32:00 10° N 17:36:56 26° NE 17:41:46 10° ESE daylight
27 Oct - 19:17:51 10° NW 19:23:36 53° WSW 19:29:13 10° S daylight
28 Oct - 08:37:18 10° S 08:43:09 40° ESE 08:48:54 10° NE visible
28 Oct - 10:23:44 10° WSW 10:29:31 37° NW 10:35:14 10° NNE visible
28 Oct - 17:41:02 10° NNW 17:46:30 37° NE 17:51:52 10° ESE daylight
28 Oct - 19:27:30 10° NW 19:32:46 35° WSW 19:37:57 10° S daylight
29 Oct - 08:46:09 10° SSW 08:52:22 59° ESE 08:58:29 10° NE visible
29 Oct - 10:33:54 10° WSW 10:39:06 26° NW 10:44:15 10° N visible
29 Oct - 16:06:27 10° NNE 16:08:10 11° NE 16:09:53 10° NE daylight
29 Oct - 17:50:10 10° NNW 17:56:00 53° ENE 18:01:40 10° SE daylight
29 Oct - 19:37:25 10° WNW 19:41:52 23° WSW 19:46:16 10° SSW daylight
30 Oct - 07:13:34 10° SE 07:16:10 13° ESE 07:18:45 10° ENE night (unlit)
30 Oct - 08:55:17 10° SSW 09:01:39 87° ESE 09:07:55 10° NNE visible
30 Oct - 10:44:25 10° W 10:48:47 19° NW 10:53:08 10° N visible
30 Oct - 16:14:35 10° N 16:18:01 15° NE 16:21:25 10° ENE daylight
30 Oct - 17:59:25 10° NNW 18:05:23 79° ENE 18:11:12 10° SSE daylight
30 Oct - 19:47:58 10° WNW 19:50:54 14° WSW 19:53:49 10° SW daylight
31 Oct - 07:20:45 10° SSE 07:25:12 20° ESE 07:29:37 10° ENE night (unlit)
31 Oct - 09:04:43 10° SW 09:11:01 66° WNW 09:17:13 10° NNE visible
31 Oct - 10:55:24 10° WNW 10:58:34 14° NW 11:01:44 10° N visible
31 Oct - 16:23:19 10° N 16:27:46 21° NE 16:32:08 10° E daylight
31 Oct - 18:08:48 10° NNW 18:14:42 70° WSW 18:20:27 10° SSE daylight
01 Nov - 07:28:52 10° SSE 07:34:18 31° ESE 07:39:40 10° NE night (unlit)
01 Nov - 09:14:25 10° SW 09:20:27 46° NW 09:26:24 10° NNE visible
01 Nov - 11:07:42 10° NW 11:08:28 10° NNW 11:09:13 10° NNW visible
01 Nov - 16:32:15 10° N 16:37:24 29° NE 16:42:27 10° ESE daylight
01 Nov - 18:18:19 10° NW 18:23:55 45° WSW 18:29:24 10° S daylight
